Weather in Soldanesti

Moldova     47°48′48″N   28°47′31″E
temp.,
°C
wind,
m/s
gust,
m/s
humid.,
%
clouds,
%
prec.,
mm/h
press.,
hPa
HPBL,
m
14 may, fri
fri1400:00+9se5138913 0.0 1008324
03:00+8se38925 0.0 1007171
06:00+7se2389100 0.0 100659
09:00+10sse3691100 1.3 1007219
12:00+11sse359298 1.1 1008222
15:00+18ssw456351 1.9 10061372
18:00+18sw46655 1.9 10061373
21:00+13ssw228473 5.3 100725
15 may, sat
sat1500:00+11w22885 0.3 100913
03:00+10w22875 0.3 101010
06:00+10ssw118633 0.0 101110
09:00+14ssw237162 0.0 1012293
12:00+18sw455420 0.1 10121612
15:00+18wnw3462100 0.1 1012924
18:00+19nw12525 0.0 1011856
21:00+14ne32775 0.0 101225
16 may, sun
sun1600:00+12e34822 0.0 101258
03:00+11e229031 0.0 101215
06:00+11ese22895 0.0 101228
09:00+17se3569100 0.0 1012352
12:00+20sse5654100 0.0 10111022
15:00+23sse5645100 0.0 10102159
18:00+22se4654100 0.0 1008579
21:00+17sse2268100 0.0 100819
17 may, mon
mon1700:00+16sw1169100 0.0 100711
03:00+15n1272100 0.0 100816
06:00+13nnw238558 0.0 100747
09:00+15nnw3581100 0.0 1008316
12:00+18nw456897 0.0 1008917
15:00+20nw446310 0.1 10071087
18:00+20nw23607 0.0 10071147
21:00+16nnw12780 0.1 100710
18 may, tue
tue1800:00+14se008136 0.0 100711
03:00+15sse227969 0.0 100613
06:00+14wnw118651 0.4 100713
09:00+16w337848 1.1 1008532
12:00+19wnw666639 0.2 10081222
15:00+19nw675696 0.3 10081762
18:00+18nw346298 0.2 10081011
21:00+14wsw007697 0.2 100911